Pocatello, ID

4:11 PM MST on February 24, 2017 (GMT -0700)
Pocatello Regional

Weather History for KPIH - February, 2013

Change the Weather History Date:

Friday, February 22, 2013

  Actual Average Record
Temperature  
Mean Temperature 30 °F 30 °F  
Max Temperature 35 °F 40 °F 62 °F (1958)
Min Temperature 25 °F 21 °F -6 °F (1952)
Degree Days  
Heating Degree Days 35 35  
Month to date heating degree days 746 827  
Since 1 July heating degree days 4854 5074  
Cooling Degree Days 0 0  
Month to date cooling degree days 0 0  
Year to date cooling degree days 0 0  
Moisture  
Dew Point 23 °F    
Average Humidity 77    
Maximum Humidity 92    
Minimum Humidity 61    
Precipitation  
Precipitation 0.08 in 0.04 in 0.30 in (1948)
Month to date precipitation 0.25 0.74  
Year to date precipitation 0.82 1.73  
Snow  
Snow 1.20 in - - ()
Month to date snowfall 4.4  
Since 1 July snowfall 31.0  
Snow Depth 1.00 in    
Sea Level Pressure  
Sea Level Pressure 30.05 in    
Wind  
Wind Speed 15 mph (SW)    
Max Wind Speed 25 mph    
Max Gust Speed 32 mph    
Visibility 7 miles    
Events Snow    
T = Trace of Precipitation, MM = Missing Value Source: NWS Daily Summary

Daily Weather History Graph

Daily Weather History Graph

Search for Another Location

Airport or City:

Trip Planner

Search our weather history database for the weather conditions in past years. The results will help you decide how hot, cold, wet, or windy it might be!

Date:

Astronomy

Feb. 22, 2013 Rise Set
Actual Time 7:16 AM MST 6:11 PM MST
Civil Twilight 6:48 AM MST 6:40 PM MST
Nautical Twilight 6:15 AM MST 7:13 PM MST
Astronomical Twilight 5:42 AM MST 7:45 PM MST
Moon 3:23 PM MST (2/22) 5:07 AM MST (2/22)
Length of Visible Light 11h 51m
Length of Day
10h 54m
Waxing Gibbous, 90% of the Moon is Illuminated
Feb 22
Waxing Gibbous
Feb 25
Full
Mar 4
Last Quarter
Mar 11
New
Mar 19
First Quarter

Hourly Weather History & Observations

Time (MST) Temp. Windchill Dew Point Humidity Pressure Visibility Wind Dir Wind Speed Gust Speed Precip Events Conditions
12:26 AM 28.4 °F 17.0 °F 23.0 °F 80% 29.98 in 10.0 mi SW 15.0 mph - N/A   Overcast
12:45 AM 26.6 °F 15.7 °F 24.8 °F 93% 29.98 in 3.0 mi SW 12.7 mph - 0.00 in Snow Light Snow
12:53 AM 27.0 °F 16.1 °F 25.0 °F 92% 30.06 in 2.5 mi SW 12.7 mph - 0.00 in Snow Light Snow
1:07 AM 26.6 °F 15.2 °F 24.8 °F 93% 29.98 in 1.5 mi SW 13.8 mph - 0.01 in Snow Light Snow
1:47 AM 26.6 °F 16.8 °F 24.8 °F 93% 29.99 in 0.8 mi SW 10.4 mph - 0.02 in Snow Light Snow
1:53 AM 27.0 °F 18.0 °F 25.0 °F 92% 30.07 in 0.8 mi SSW 9.2 mph - 0.03 in Snow Light Snow
2:06 AM 26.6 °F 17.5 °F 24.8 °F 93% 29.99 in 1.2 mi SW 9.2 mph - 0.01 in Snow Light Snow
2:13 AM 26.6 °F 17.5 °F 24.8 °F 93% 29.99 in 1.2 mi WSW 9.2 mph - 0.01 in Snow Light Snow
2:39 AM 26.6 °F 16.8 °F 24.8 °F 93% 29.99 in 1.0 mi WSW 10.4 mph - 0.02 in Snow Light Snow
2:53 AM 27.0 °F 17.3 °F 25.0 °F 92% 30.07 in 1.0 mi WSW 10.4 mph - 0.03 in Snow Light Snow
3:15 AM 26.6 °F 16.8 °F 24.8 °F 93% 29.99 in 2.5 mi WSW 10.4 mph - 0.01 in Snow Light Snow
3:32 AM 26.6 °F 15.7 °F 23.0 °F 86% 29.99 in 1.8 mi WSW 12.7 mph - 0.01 in Snow Light Snow
3:35 AM 26.6 °F 16.2 °F 23.0 °F 86% 29.99 in 2.5 mi WSW 11.5 mph - 0.01 in Snow Light Snow
3:38 AM 26.6 °F 16.8 °F 23.0 °F 86% 29.99 in 3.0 mi WSW 10.4 mph - 0.01 in Snow Light Snow
3:48 AM 26.6 °F 16.2 °F 23.0 °F 86% 29.99 in 2.0 mi WSW 11.5 mph - 0.01 in Snow Light Snow
3:53 AM 26.1 °F 16.2 °F 23.0 °F 88% 30.07 in 4.0 mi WSW 10.4 mph - 0.01 in Snow Light Snow
4:01 AM 26.6 °F 15.7 °F 23.0 °F 86% 29.99 in 5.0 mi WSW 12.7 mph - 0.00 in Snow Light Snow
4:06 AM 26.6 °F 15.2 °F 23.0 °F 86% 29.99 in 2.5 mi WSW 13.8 mph - 0.00 in Snow Light Snow
4:22 AM 24.8 °F 13.4 °F 21.2 °F 86% 30.00 in 3.0 mi WSW 12.7 mph - 0.01 in Snow Light Snow
4:36 AM 24.8 °F 15.3 °F 21.2 °F 86% 30.00 in 10.0 mi WSW 9.2 mph - 0.01 in   Overcast
4:53 AM 26.1 °F 15.6 °F 21.9 °F 84% 30.09 in 10.0 mi WSW 11.5 mph - 0.01 in   Overcast
5:53 AM 25.0 °F 14.8 °F 21.9 °F 88% 30.10 in 10.0 mi SW 10.4 mph - N/A   Overcast
6:53 AM 25.0 °F 14.2 °F 21.9 °F 88% 30.14 in 10.0 mi SW 11.5 mph - N/A   Overcast
7:53 AM 25.0 °F 15.5 °F 21.0 °F 85% 30.16 in 10.0 mi SW 9.2 mph - N/A   Overcast
8:53 AM 26.1 °F 15.0 °F 21.9 °F 84% 30.17 in 10.0 mi SW 12.7 mph - N/A   Mostly Cloudy
9:53 AM 28.0 °F 17.5 °F 21.9 °F 78% 30.17 in 10.0 mi SW 12.7 mph - N/A   Mostly Cloudy
10:53 AM 28.9 °F 17.3 °F 21.9 °F 75% 30.17 in 10.0 mi SW 16.1 mph - N/A   Mostly Cloudy
11:53 AM 32.0 °F 20.8 °F 23.0 °F 69% 30.16 in 10.0 mi SW 17.3 mph - N/A   Scattered Clouds
12:53 PM 33.1 °F 23.4 °F 24.1 °F 70% 30.14 in 10.0 mi SW 13.8 mph - N/A   Scattered Clouds
1:53 PM 35.1 °F 24.5 °F 24.1 °F 64% 30.12 in 10.0 mi WSW 18.4 mph 25.3 mph N/A   Mostly Cloudy
2:53 PM 33.1 °F 22.2 °F 23.0 °F 66% 30.10 in 10.0 mi SW 17.3 mph - 0.00 in Snow Light Snow
3:53 PM 34.0 °F 22.7 °F 23.0 °F 64% 30.09 in 9.0 mi SW 19.6 mph - 0.00 in Snow Light Snow
4:53 PM 34.0 °F 23.4 °F 23.0 °F 64% 30.07 in 10.0 mi SW 17.3 mph - 0.00 in Snow Light Snow
5:53 PM 30.9 °F 19.8 °F 23.0 °F 72% 30.08 in 10.0 mi South 16.1 mph - 0.00 in   Overcast
6:53 PM 32.0 °F 21.2 °F 21.9 °F 66% 30.06 in 10.0 mi South 16.1 mph - N/A   Overcast
7:53 PM 32.0 °F 20.8 °F 21.0 °F 64% 30.04 in 10.0 mi South 17.3 mph 26.5 mph N/A   Overcast
8:53 PM 33.1 °F 20.6 °F 21.9 °F 64% 30.01 in 10.0 mi South 23.0 mph 29.9 mph N/A   Overcast
9:53 PM 32.0 °F 18.9 °F 23.0 °F 69% 30.01 in 10.0 mi South 24.2 mph 28.8 mph N/A   Overcast
10:53 PM 30.9 °F 18.1 °F 23.0 °F 72% 30.00 in 10.0 mi South 21.9 mph 28.8 mph N/A   Overcast
11:53 PM 30.9 °F 19.4 °F 23.0 °F 72% 29.97 in 10.0 mi South 17.3 mph - N/A   Overcast